TimeEST,TemperatureF,Dew PointF,Humidity,Sea Level PressureIn,VisibilityMPH,Wind Direction,Wind SpeedMPH,Gust SpeedMPH,PrecipitationIn,Events,Conditions,WindDirDegrees,DateUTC
12:24 AM,50.0,42.8,76,29.75,10.0,NNW,8.1,-,N/A,,Mostly Cloudy,330,2013-11-03 04:24:00
12:42 AM,50.0,44.6,82,29.76,10.0,North,16.1,-,N/A,,Overcast,10,2013-11-03 04:42:00
12:43 AM,50.0,44.6,82,29.76,10.0,North,17.3,-,N/A,,Overcast,10,2013-11-03 04:43:00
12:56 AM,50.0,44.6,82,29.78,10.0,North,6.9,-,N/A,,Overcast,10,2013-11-03 04:56:00
1:36 AM,48.2,42.8,82,29.81,10.0,North,10.4,-,N/A,,Overcast,360,2013-11-03 05:36:00
1:58 AM,47.8,41.5,79,29.84,10.0,North,11.5,-,N/A,,Overcast,360,2013-11-03 05:58:00
1:58 AM,45.9,38.3,75,29.85,10.0,North,12.7,23.0,N/A,,Overcast,360,2013-11-03 06:58:00
2:58 AM,42.3,33.3,70,29.88,10.0,North,10.4,-,N/A,,Clear,360,2013-11-03 07:58:00
3:58 AM,41.9,32.2,68,29.92,10.0,North,17.3,23.0,N/A,,Overcast,350,2013-11-03 08:58:00
4:58 AM,41.4,31.3,67,29.96,10.0,North,9.2,-,N/A,,Overcast,10,2013-11-03 09:58:00
5:58 AM,40.8,31.1,68,29.98,10.0,North,13.8,21.9,N/A,,Scattered Clouds,360,2013-11-03 10:58:00
6:58 AM,40.8,31.1,68,30.03,10.0,NNE,12.7,-,N/A,,Overcast,20,2013-11-03 11:58:00
11:58 AM,45.9,24.8,44,30.12,10.0,NNE,12.7,-,N/A,,Overcast,30,2013-11-03 16:58:00
12:58 PM,46.6,23.9,41,30.15,10.0,NE,10.4,-,N/A,,Overcast,40,2013-11-03 17:58:00
1:58 PM,46.4,22.5,39,30.17,10.0,NE,11.5,-,N/A,,Clear,40,2013-11-03 18:58:00
2:58 PM,46.8,22.1,38,30.19,10.0,NNE,8.1,-,N/A,,Clear,30,2013-11-03 19:58:00
3:58 PM,45.1,22.5,41,30.22,10.0,NNW,9.2,-,N/A,,Clear,330,2013-11-03 20:58:00
4:58 PM,40.6,20.1,44,30.26,10.0,NNW,8.1,-,N/A,,Clear,330,2013-11-03 21:58:00
5:58 PM,37.9,19.4,47,30.30,10.0,North,9.2,-,N/A,,Clear,350,2013-11-03 22:58:00
6:58 PM,36.7,18.7,48,30.34,10.0,North,8.1,-,N/A,,Clear,360,2013-11-03 23:58:00
7:58 PM,34.9,18.1,51,30.38,10.0,North,10.4,-,N/A,,Clear,10,2013-11-04 00:58:00
8:58 PM,33.1,17.2,52,30.41,10.0,NNE,12.7,-,N/A,,Clear,20,2013-11-04 01:58:00
9:58 PM,32.0,16.2,52,30.44,10.0,NNE,10.4,-,N/A,,Clear,20,2013-11-04 02:58:00
10:58 PM,31.3,15.1,51,30.44,10.0,NNE,8.1,-,N/A,,Clear,30,2013-11-04 03:58:00